When you browse on this site, cookies collect data to enhance your experience and personalize the content and advertising you see.
Visit our Privacy Policy to learn more. By continuing to use the site, you agree to this use of cookies and data.
  • en France
  • Liste des pays
  • À 7 jours
  • Température de l'eau
  • Carte météo
  • Widgets météo
  • user-avatar
    Se connecter

    Météo par heure à Zaranj

    Ce jour, 23 Août, Vendredi

    Heure Température Précipitation Vent Pression Humidité
    00:00 +33°C° 0 mm 10 m/s 712 mmHg 22%
    01:00 +33°C° 0 mm 10 m/s 712 mmHg 23%
    02:00 +32°C° 0 mm 10 m/s 712 mmHg 24%
    03:00 +32°C° 0 mm 9 m/s 712 mmHg 24%
    04:00 +31°C° 0 mm 9 m/s 713 mmHg 25%
    05:00 +32°C° 0 mm 9 m/s 713 mmHg 24%
    06:00 +32°C° 0 mm 9 m/s 713 mmHg 22%
    07:00 +32°C° 0 mm 9 m/s 714 mmHg 21%
    08:00 +34°C° 0 mm 9 m/s 714 mmHg 19%
    09:00 +37°C° 0 mm 9 m/s 714 mmHg 16%
    10:00 +39°C° 0 mm 9 m/s 714 mmHg 13%
    11:00 +42°C° 0 mm 9 m/s 714 mmHg 12%
    12:00 +44°C° 0 mm 8 m/s 713 mmHg 10%
    13:00 +45°C° 0 mm 7 m/s 713 mmHg 8%
    14:00 +45°C° 0 mm 7 m/s 713 mmHg 7%
    15:00 +46°C° 0 mm 7 m/s 712 mmHg 6%
    16:00 +46°C° 0 mm 7 m/s 712 mmHg 6%
    17:00 +44°C° 0 mm 7 m/s 712 mmHg 8%
    18:00 +41°C° 0 mm 8 m/s 712 mmHg 10%
    19:00 +39°C° 0 mm 8 m/s 712 mmHg 13%
    20:00 +38°C° 0 mm 9 m/s 712 mmHg 14%
    21:00 +38°C° 0 mm 11 m/s 712 mmHg 16%
    22:00 +37°C° 0 mm 12 m/s 712 mmHg 17%
    23:00 +36°C° 0 mm 11 m/s 712 mmHg 18%

    Demain, 24 Août, Samedi

    Heure Température Précipitation Vent Pression Humidité
    00:00 +34°C° 0 mm 11 m/s 712 mmHg 19%
    01:00 +33°C° 0 mm 10 m/s 712 mmHg 20%
    02:00 +33°C° 0 mm 10 m/s 712 mmHg 21%
    03:00 +32°C° 0 mm 9 m/s 712 mmHg 21%
    04:00 +31°C° 0 mm 9 m/s 712 mmHg 22%
    05:00 +32°C° 0 mm 9 m/s 712 mmHg 21%
    06:00 +32°C° 0 mm 9 m/s 713 mmHg 21%
    07:00 +32°C° 0 mm 9 m/s 713 mmHg 20%
    08:00 +34°C° 0 mm 8 m/s 713 mmHg 18%
    09:00 +36°C° 0 mm 7 m/s 714 mmHg 15%
    10:00 +39°C° 0 mm 7 m/s 714 mmHg 13%
    11:00 +40°C° 0 mm 7 m/s 714 mmHg 11%
    12:00 +42°C° 0 mm 6 m/s 713 mmHg 9%
    13:00 +45°C° 0 mm 6 m/s 713 mmHg 8%
    14:00 +45°C° 0 mm 7 m/s 712 mmHg 7%
    15:00 +45°C° 0 mm 7 m/s 712 mmHg 7%
    16:00 +45°C° 0 mm 7 m/s 711 mmHg 7%
    17:00 +43°C° 0 mm 8 m/s 711 mmHg 9%
    18:00 +40°C° 0 mm 9 m/s 711 mmHg 11%
    19:00 +38°C° 0 mm 10 m/s 711 mmHg 13%
    20:00 +37°C° 0 mm 10 m/s 712 mmHg 13%
    21:00 +36°C° 0 mm 11 m/s 712 mmHg 14%
    22:00 +34°C° 0 mm 11 m/s 712 mmHg 14%
    23:00 +33°C° 0 mm 11 m/s 712 mmHg 15%

    Après-demain, 25 Août, Dimanche

    Heure Température Précipitation Vent Pression Humidité
    00:00 +32°C° 0 mm 11 m/s 712 mmHg 15%
    01:00 +31°C° 0 mm 12 m/s 712 mmHg 16%
    02:00 +31°C° 0 mm 11 m/s 712 mmHg 16%
    03:00 +29°C° 0 mm 10 m/s 712 mmHg 17%
    04:00 +28°C° 0 mm 10 m/s 712 mmHg 17%
    05:00 +29°C° 0 mm 10 m/s 712 mmHg 17%
    06:00 +29°C° 0 mm 10 m/s 713 mmHg 16%
    07:00 +29°C° 0 mm 11 m/s 713 mmHg 16%
    08:00 +32°C° 0 mm 11 m/s 713 mmHg 14%
    09:00 +36°C° 0 mm 12 m/s 713 mmHg 12%
    10:00 +38°C° 0 mm 12 m/s 714 mmHg 10%
    11:00 +39°C° 0 mm 11 m/s 713 mmHg 9%
    12:00 +42°C° 0 mm 11 m/s 713 mmHg 8%
    13:00 +43°C° 0 mm 10 m/s 712 mmHg 7%
    14:00 +44°C° 0 mm 9 m/s 712 mmHg 6%
    15:00 +44°C° 0 mm 9 m/s 711 mmHg 6%
    16:00 +44°C° 0 mm 8 m/s 711 mmHg 6%
    17:00 +41°C° 0 mm 8 m/s 711 mmHg 8%
    18:00 +39°C° 0 mm 8 m/s 711 mmHg 11%
    19:00 +36°C° 0 mm 7 m/s 711 mmHg 13%
    20:00 +35°C° 0 mm 8 m/s 711 mmHg 14%
    21:00 +35°C° 0 mm 9 m/s 712 mmHg 14%
    22:00 +34°C° 0 mm 10 m/s 712 mmHg 15%
    23:00 +33°C° 0 mm 10 m/s 712 mmHg 16%

    26 Août, Lundi

    Heure Température Précipitation Vent Pression Humidité
    00:00 +32°C° 0 mm 9 m/s 712 mmHg 18%
    01:00 +31°C° 0 mm 9 m/s 712 mmHg 19%
    02:00 +31°C° 0 mm 8 m/s 712 mmHg 20%
    03:00 +29°C° 0 mm 8 m/s 712 mmHg 22%
    04:00 +28°C° 0 mm 7 m/s 712 mmHg 23%
    05:00 +29°C° 0 mm 8 m/s 712 mmHg 21%
    06:00 +29°C° 0 mm 8 m/s 712 mmHg 20%
    07:00 +31°C° 0 mm 9 m/s 713 mmHg 18%
    08:00 +33°C° 0 mm 9 m/s 713 mmHg 15%
    09:00 +37°C° 0 mm 9 m/s 713 mmHg 13%
    10:00 +39°C° 0 mm 9 m/s 714 mmHg 10%
    11:00 +42°C° 0 mm 9 m/s 713 mmHg 9%
    12:00 +43°C° 0 mm 9 m/s 713 mmHg 7%
    13:00 +45°C° 0 mm 9 m/s 713 mmHg 6%
    14:00 +45°C° 0 mm 9 m/s 712 mmHg 6%
    15:00 +45°C° 0 mm 9 m/s 712 mmHg 6%
    16:00 +47°C° 0 mm 9 m/s 711 mmHg 6%
    17:00 +43°C° 0 mm 9 m/s 711 mmHg 8%
    18:00 +40°C° 0 mm 9 m/s 711 mmHg 10%
    19:00 +38°C° 0 mm 8 m/s 711 mmHg 12%
    20:00 +37°C° 0 mm 9 m/s 712 mmHg 12%
    21:00 +36°C° 0 mm 10 m/s 712 mmHg 12%
    22:00 +34°C° 0 mm 11 m/s 713 mmHg 12%
    23:00 +34°C° 0 mm 12 m/s 712 mmHg 13%

    27 Août, Mardi

    Heure Température Précipitation Vent Pression Humidité
    00:00 +33°C° 0 mm 12 m/s 712 mmHg 13%
    01:00 +32°C° 0 mm 12 m/s 712 mmHg 14%
    02:00 +32°C° 0 mm 12 m/s 712 mmHg 14%
    03:00 +31°C° 0 mm 11 m/s 712 mmHg 15%
    04:00 +31°C° 0 mm 11 m/s 712 mmHg 15%
    05:00 +31°C° 0 mm 12 m/s 712 mmHg 15%
    06:00 +31°C° 0 mm 12 m/s 713 mmHg 14%
    07:00 +31°C° 0 mm 12 m/s 713 mmHg 14%
    08:00 +33°C° 0 mm 12 m/s 713 mmHg 12%
    09:00 +37°C° 0 mm 11 m/s 713 mmHg 10%
    10:00 +39°C° 0 mm 11 m/s 714 mmHg 8%
    11:00 +42°C° 0 mm 11 m/s 713 mmHg 7%
    12:00 +44°C° 0 mm 11 m/s 713 mmHg 6%
    13:00 +47°C° 0 mm 10 m/s 713 mmHg 5%
    14:00 +47°C° 0 mm 10 m/s 712 mmHg 5%
    15:00 +47°C° 0 mm 10 m/s 711 mmHg 5%
    16:00 +47°C° 0 mm 10 m/s 711 mmHg 5%
    17:00 +43°C° 0 mm 10 m/s 711 mmHg 7%
    18:00 +40°C° 0 mm 10 m/s 711 mmHg 9%
    19:00 +38°C° 0 mm 9 m/s 711 mmHg 11%
    20:00 +37°C° 0 mm 10 m/s 711 mmHg 12%
    21:00 +36°C° 0 mm 11 m/s 712 mmHg 12%
    22:00 +34°C° 0 mm 12 m/s 712 mmHg 13%
    23:00 +34°C° 0 mm 11 m/s 712 mmHg 14%

    28 Août, Mercredi

    Heure Température Précipitation Vent Pression Humidité
    00:00 +33°C° 0 mm 11 m/s 712 mmHg 15%
    01:00 +32°C° 0 mm 11 m/s 711 mmHg 17%
    02:00 +31°C° 0 mm 10 m/s 711 mmHg 18%
    03:00 +29°C° 0 mm 9 m/s 711 mmHg 19%
    04:00 +28°C° 0 mm 8 m/s 711 mmHg 20%
    05:00 +29°C° 0 mm 8 m/s 712 mmHg 19%
    06:00 +29°C° 0 mm 8 m/s 712 mmHg 18%
    07:00 +31°C° 0 mm 8 m/s 713 mmHg 17%
    08:00 +33°C° 0 mm 8 m/s 713 mmHg 15%
    09:00 +37°C° 0 mm 9 m/s 713 mmHg 12%
    10:00 +39°C° 0 mm 9 m/s 713 mmHg 10%
    11:00 +41°C° 0 mm 8 m/s 713 mmHg 8%
    12:00 +44°C° 0 mm 8 m/s 713 mmHg 7%
    13:00 +45°C° 0 mm 7 m/s 712 mmHg 6%
    14:00 +46°C° 0 mm 8 m/s 712 mmHg 6%
    15:00 +46°C° 0 mm 8 m/s 712 mmHg 5%
    16:00 +47°C° 0 mm 9 m/s 711 mmHg 5%
    17:00 +44°C° 0 mm 9 m/s 711 mmHg 8%
    18:00 +41°C° 0 mm 8 m/s 711 mmHg 10%
    19:00 +38°C° 0 mm 8 m/s 711 mmHg 13%
    20:00 +38°C° 0 mm 9 m/s 712 mmHg 13%
    21:00 +37°C° 0 mm 9 m/s 712 mmHg 14%
    22:00 +36°C° 0 mm 10 m/s 713 mmHg 15%
    23:00 +34°C° 0 mm 9 m/s 712 mmHg 15%
    Voir plus